TimeEDT,TemperatureF,Dew PointF,Humidity,Sea Level PressureIn,VisibilityMPH,Wind Direction,Wind SpeedMPH,Gust SpeedMPH,PrecipitationIn,Events,Conditions,WindDirDegrees,DateUTC
12:53 AM,54.0,43.0,66,29.91,10.0,ENE,4.6,-,N/A,,Clear,70,2012-10-01 04:53:00
1:53 AM,53.1,43.0,69,29.90,10.0,East,3.5,-,N/A,,Clear,90,2012-10-01 05:53:00
2:53 AM,53.1,43.0,69,29.88,10.0,Calm,Calm,-,N/A,,Clear,0,2012-10-01 06:53:00
3:53 AM,52.0,43.0,71,29.87,10.0,ENE,3.5,-,N/A,,Clear,60,2012-10-01 07:53:00
4:53 AM,51.1,43.0,74,29.86,10.0,ENE,3.5,-,N/A,,Clear,60,2012-10-01 08:53:00
5:53 AM,48.9,43.0,80,29.86,10.0,Calm,Calm,-,N/A,,Clear,0,2012-10-01 09:53:00
6:53 AM,50.0,43.0,77,29.86,10.0,NNE,4.6,-,N/A,,Clear,30,2012-10-01 10:53:00
8:53 AM,52.0,45.0,77,29.87,10.0,Variable,4.6,-,N/A,,Clear,0,2012-10-01 12:53:00
9:53 AM,53.1,45.0,74,29.85,10.0,Variable,4.6,-,N/A,,Clear,0,2012-10-01 13:53:00
10:53 AM,54.0,46.0,75,29.86,10.0,East,4.6,-,N/A,,Clear,80,2012-10-01 14:53:00
11:53 AM,55.9,46.9,72,29.84,10.0,NE,8.1,-,N/A,,Clear,50,2012-10-01 15:53:00
12:53 PM,59.0,46.9,64,29.83,10.0,ENE,9.2,-,N/A,,Clear,60,2012-10-01 16:53:00
1:53 PM,61.0,48.0,62,29.81,10.0,NE,6.9,-,N/A,,Clear,40,2012-10-01 17:53:00
2:53 PM,62.1,48.0,60,29.79,10.0,ENE,5.8,-,N/A,,Clear,60,2012-10-01 18:53:00
3:53 PM,61.0,48.0,62,29.77,10.0,NE,4.6,-,0.00,Rain,Light Rain,40,2012-10-01 19:53:00
5:53 PM,57.9,51.1,78,29.75,7.0,NNE,6.9,-,0.04,Rain,Rain,20,2012-10-01 21:53:00
6:53 PM,57.0,52.0,83,29.76,10.0,North,5.8,-,0.03,Rain,Light Rain,10,2012-10-01 22:53:00
7:53 PM,55.0,53.1,93,29.75,8.0,Calm,Calm,-,0.06,Rain,Light Rain,0,2012-10-01 23:53:00
8:53 PM,55.9,51.1,84,29.75,10.0,NE,8.1,-,0.01,,Overcast,40,2012-10-02 00:53:00
9:53 PM,55.0,53.1,93,29.75,10.0,NE,8.1,-,N/A,,Overcast,40,2012-10-02 01:53:00
10:53 PM,54.0,50.0,86,29.74,9.0,NE,10.4,-,0.01,Rain,Light Rain,50,2012-10-02 02:53:00